• In Hungary
  • List of Countries
  • For 7 days
  • Water Temperature
  • Satellite Maps
  • Weather Map
  • News
  • Weather Widgets
  • user-avatar
    Login

    Hourly Weather Kardzhali

    Today, 17 January, Wednesday

    Time Temperature Precipitation Wind Pressure Humidity
    00:00 +3°C° 0 mm 2 mps 722 mmHg 88%
    01:00 +3°C° 0 mm 2 mps 722 mmHg 87%
    02:00 +3°C° 0 mm 2 mps 721 mmHg 85%
    03:00 +3°C° 0 mm 2 mps 721 mmHg 85%
    04:00 +3°C° 0 mm 2 mps 721 mmHg 85%
    05:00 +3°C° 0 mm 1 mps 720 mmHg 85%
    06:00 +3°C° 0 mm 1 mps 720 mmHg 84%
    07:00 +2°C° 0 mm 2 mps 720 mmHg 84%
    08:00 +2°C° 0 mm 2 mps 719 mmHg 84%
    09:00 +4°C° 0 mm 2 mps 719 mmHg 78%
    10:00 +5°C° 0 mm 3 mps 719 mmHg 72%
    11:00 +8°C° 0 mm 3 mps 719 mmHg 67%
    12:00 +8°C° 0 mm 4 mps 718 mmHg 65%
    13:00 +9°C° 0 mm 5 mps 717 mmHg 62%
    14:00 +10°C° 0 mm 6 mps 716 mmHg 60%
    15:00 +9°C° 0 mm 6 mps 715 mmHg 66%
    16:00 +9°C° 0 mm 6 mps 714 mmHg 72%
    17:00 +8°C° 0 mm 6 mps 712 mmHg 78%
    18:00 +8°C° 0.2 mm 7 mps 712 mmHg 80%
    19:00 +7°C° 0.2 mm 8 mps 711 mmHg 81%
    20:00 +7°C° 0.2 mm 8 mps 710 mmHg 83%
    21:00 +7°C° 0.4 mm 8 mps 710 mmHg 80%
    22:00 +8°C° 0.4 mm 7 mps 710 mmHg 77%
    23:00 +8°C° 0.4 mm 7 mps 710 mmHg 73%

    Tomorrow, 18 January, Thursday

    Time Temperature Precipitation Wind Pressure Humidity
    00:00 +6°C° 0 mm 7 mps 710 mmHg 73%
    01:00 +5°C° 0 mm 6 mps 711 mmHg 72%
    02:00 +4°C° 0 mm 6 mps 711 mmHg 72%
    03:00 +3°C° 0 mm 7 mps 712 mmHg 68%
    04:00 +2°C° 0 mm 7 mps 712 mmHg 64%
    05:00 0°C° 0 mm 8 mps 713 mmHg 59%
    06:00 0°C° 0 mm 8 mps 714 mmHg 58%
    07:00 -1°C° 0 mm 9 mps 715 mmHg 56%
    08:00 -1°C° 0 mm 9 mps 715 mmHg 54%
    09:00 -2°C° 0 mm 10 mps 716 mmHg 51%
    10:00 0°C° 0 mm 10 mps 718 mmHg 48%
    11:00 -1°C° 0 mm 11 mps 719 mmHg 46%
    12:00 +1°C° 0 mm 11 mps 719 mmHg 44%
    13:00 +1°C° 0 mm 11 mps 720 mmHg 41%
    14:00 +2°C° 0 mm 11 mps 721 mmHg 39%
    15:00 +1°C° 0 mm 9 mps 722 mmHg 41%
    16:00 +1°C° 0 mm 8 mps 722 mmHg 43%
    17:00 +1°C° 0 mm 6 mps 723 mmHg 45%
    18:00 -1°C° 0 mm 6 mps 724 mmHg 48%
    19:00 0°C° 0 mm 5 mps 724 mmHg 50%
    20:00 -1°C° 0 mm 4 mps 725 mmHg 52%
    21:00 -1°C° 0 mm 4 mps 725 mmHg 52%
    22:00 0°C° 0 mm 3 mps 725 mmHg 51%
    23:00 -1°C° 0 mm 3 mps 726 mmHg 50%

    Day after tomorrow, 19 January, Friday

    Time Temperature Precipitation Wind Pressure Humidity
    00:00 -1°C° 0 mm 3 mps 725 mmHg 50%
    01:00 -1°C° 0 mm 3 mps 725 mmHg 50%
    02:00 -1°C° 0 mm 2 mps 725 mmHg 51%
    03:00 +1°C° 0 mm 2 mps 725 mmHg 50%
    04:00 +1°C° 0 mm 2 mps 725 mmHg 50%
    05:00 +1°C° 0 mm 2 mps 724 mmHg 50%
    06:00 +1°C° 0 mm 2 mps 724 mmHg 50%
    07:00 +1°C° 0 mm 2 mps 724 mmHg 50%
    08:00 +1°C° 0 mm 2 mps 724 mmHg 50%
    09:00 +2°C° 0 mm 3 mps 725 mmHg 47%
    10:00 +4°C° 0 mm 3 mps 725 mmHg 43%
    11:00 +7°C° 0 mm 3 mps 725 mmHg 40%
    12:00 +7°C° 0 mm 4 mps 725 mmHg 40%
    13:00 +8°C° 0 mm 4 mps 724 mmHg 40%
    14:00 +10°C° 0 mm 4 mps 724 mmHg 40%
    15:00 +8°C° 0 mm 3 mps 724 mmHg 46%
    16:00 +7°C° 0 mm 3 mps 724 mmHg 51%
    17:00 +6°C° 0 mm 2 mps 724 mmHg 57%
    18:00 +5°C° 0 mm 2 mps 724 mmHg 59%
    19:00 +4°C° 0 mm 2 mps 724 mmHg 62%
    20:00 +4°C° 0 mm 2 mps 724 mmHg 65%
    21:00 +4°C° 0 mm 2 mps 724 mmHg 65%
    22:00 +3°C° 0 mm 2 mps 724 mmHg 66%
    23:00 +3°C° 0 mm 2 mps 724 mmHg 67%

    20 January, Saturday

    Time Temperature Precipitation Wind Pressure Humidity
    00:00 +3°C° 0 mm 2 mps 724 mmHg 68%
    01:00 +3°C° 0 mm 2 mps 723 mmHg 70%
    02:00 +3°C° 0 mm 2 mps 723 mmHg 71%
    03:00 +3°C° 0 mm 2 mps 723 mmHg 73%
    04:00 +4°C° 0 mm 2 mps 723 mmHg 76%
    05:00 +4°C° 0 mm 2 mps 722 mmHg 78%
    06:00 +4°C° 0 mm 2 mps 722 mmHg 79%
    07:00 +4°C° 0 mm 2 mps 722 mmHg 81%
    08:00 +4°C° 0 mm 2 mps 722 mmHg 82%
    09:00 +5°C° 0 mm 3 mps 722 mmHg 76%
    10:00 +7°C° 0 mm 4 mps 722 mmHg 71%
    11:00 +9°C° 0 mm 5 mps 722 mmHg 65%
    12:00 +10°C° 0 mm 5 mps 721 mmHg 64%
    13:00 +10°C° 0 mm 6 mps 721 mmHg 63%
    14:00 +11°C° 0 mm 6 mps 720 mmHg 62%
    15:00 +10°C° 0 mm 6 mps 720 mmHg 66%
    16:00 +10°C° 0 mm 5 mps 720 mmHg 71%
    17:00 +9°C° 0 mm 5 mps 720 mmHg 76%
    18:00 +8°C° 0.1 mm 5 mps 720 mmHg 79%
    19:00 +8°C° 0.1 mm 4 mps 720 mmHg 82%
    20:00 +9°C° 0.1 mm 3 mps 720 mmHg 86%
    21:00 +8°C° 0.5 mm 3 mps 720 mmHg 86%
    22:00 +8°C° 0.5 mm 3 mps 720 mmHg 86%
    23:00 +8°C° 0.5 mm 3 mps 721 mmHg 87%

    21 January, Sunday

    Time Temperature Precipitation Wind Pressure Humidity
    00:00 +7°C° 0.3 mm 3 mps 721 mmHg 87%
    01:00 +6°C° 0.3 mm 2 mps 721 mmHg 87%
    02:00 +5°C° 0.3 mm 2 mps 721 mmHg 87%
    03:00 +5°C° 0 mm 2 mps 721 mmHg 87%
    04:00 +4°C° 0 mm 2 mps 722 mmHg 87%
    05:00 +3°C° 0 mm 2 mps 722 mmHg 87%
    06:00 +3°C° 0 mm 2 mps 722 mmHg 85%
    07:00 +3°C° 0 mm 2 mps 722 mmHg 84%
    08:00 +2°C° 0 mm 2 mps 723 mmHg 83%
    09:00 +3°C° 0 mm 2 mps 723 mmHg 77%
    10:00 +3°C° 0 mm 3 mps 723 mmHg 71%
    11:00 +3°C° 0 mm 3 mps 724 mmHg 64%
    12:00 +3°C° 0 mm 4 mps 724 mmHg 62%
    13:00 +4°C° 0 mm 4 mps 723 mmHg 60%
    14:00 +3°C° 0 mm 5 mps 723 mmHg 58%
    15:00 +2°C° 0.1 mm 5 mps 723 mmHg 62%
    16:00 +2°C° 0.1 mm 5 mps 723 mmHg 66%
    17:00 +1°C° 0.1 mm 5 mps 723 mmHg 70%
    18:00 +1°C° 0.3 mm 5 mps 724 mmHg 72%
    19:00 0°C° 0.3 mm 5 mps 724 mmHg 74%
    20:00 0°C° 0.3 mm 5 mps 724 mmHg 76%
    21:00 -1°C° 0.2 mm 5 mps 724 mmHg 76%
    22:00 -1°C° 0.2 mm 5 mps 724 mmHg 76%
    23:00 -2°C° 0.2 mm 6 mps 724 mmHg 76%

    22 January, Monday

    Time Temperature Precipitation Wind Pressure Humidity
    00:00 -2°C° 0 mm 6 mps 724 mmHg 76%
    01:00 -2°C° 0 mm 6 mps 724 mmHg 75%
    02:00 -3°C° 0 mm 6 mps 724 mmHg 74%
    03:00 -3°C° 0 mm 6 mps 724 mmHg 74%
    04:00 -3°C° 0 mm 7 mps 725 mmHg 74%
    05:00 -3°C° 0 mm 7 mps 725 mmHg 74%
    06:00 -3°C° 0 mm 7 mps 725 mmHg 74%
    07:00 -4°C° 0 mm 6 mps 726 mmHg 73%
    08:00 -4°C° 0 mm 6 mps 726 mmHg 73%
    09:00 -3°C° 0 mm 7 mps 727 mmHg 68%
    10:00 -2°C° 0 mm 7 mps 727 mmHg 64%
    11:00 -1°C° 0 mm 7 mps 728 mmHg 59%
    12:00 -1°C° 0 mm 7 mps 728 mmHg 57%
    13:00 -1°C° 0 mm 7 mps 728 mmHg 54%
    14:00 0°C° 0 mm 7 mps 728 mmHg 51%
    15:00 -1°C° 0 mm 6 mps 728 mmHg 53%
    16:00 0°C° 0 mm 5 mps 728 mmHg 56%
    17:00 -1°C° 0 mm 4 mps 729 mmHg 58%
    18:00 -2°C° 0 mm 4 mps 729 mmHg 62%
    19:00 -3°C° 0 mm 4 mps 730 mmHg 65%
    20:00 -2°C° 0 mm 3 mps 730 mmHg 69%
    21:00 -4°C° 0 mm 3 mps 730 mmHg 70%
    22:00 -4°C° 0 mm 3 mps 730 mmHg 71%
    23:00 -3°C° 0 mm 2 mps 730 mmHg 72%
    Show more